New Orleans Lakefront, LA

12:36 PM CDT on May 23, 2018 (GMT -0500)
Lakefront

Weather History for KNEW - March, 2014

Change the Weather History Date:

Tuesday, March 11, 2014

  Actual Average Record
Temperature  
Mean Temperature 66 °F 62 °F  
Max Temperature 71 °F 71 °F 85 °F (1955)
Min Temperature 60 °F 53 °F 35 °F (1998)
Degree Days  
Heating Degree Days 0 5  
Month to date heating degree days 99 63  
Since 1 July heating degree days 1452 1172  
Cooling Degree Days 1 2  
Month to date cooling degree days 8 17  
Year to date cooling degree days 32 54  
Growing Degree Days 14 (Base 50)    
Moisture  
Dew Point 62 °F    
Average Humidity 88    
Maximum Humidity 97    
Minimum Humidity 78    
Precipitation  
Precipitation 0.25 in 0.13 in 1.51 in (2016)
Month to date precipitation 0.74 1.64  
Year to date precipitation 9.77 12.09  
Snow  
Snow 0.00 in - - ()
Month to date snowfall 0.0  
Since 1 July snowfall T  
Snow Depth 0.00 in    
Sea Level Pressure  
Sea Level Pressure 29.82 in    
Wind  
Wind Speed 7 mph (SE)    
Max Wind Speed 17 mph    
Max Gust Speed 23 mph    
Visibility 6 miles    
Events Fog , Rain , Thunderstorm    
T = Trace of Precipitation, MM = Missing Value Source: NWS Daily Summary

Daily Weather History Graph

Daily Weather History Graph

Search for Another Location

Airport or City:

Astronomy

Mar. 11, 2014 Rise Set
Actual Time 7:14 AM CDT 7:05 PM CDT
Civil Twilight 6:50 AM CDT 7:29 PM CDT
Nautical Twilight 6:23 AM CDT 7:57 PM CDT
Astronomical Twilight 5:55 AM CDT 8:25 PM CDT
Moon 2:57 PM CDT (3/11) 3:52 AM CDT (3/11)
Length of Visible Light 12h 39m
Length of Day
11h 51m
Waxing Gibbous, 78% of the Moon is Illuminated
Mar 11
Waxing Gibbous
Mar 16
Full
Mar 23
Last Quarter
Mar 30
New
Apr 7
First Quarter

Hourly Weather History & Observations

Time (CDT) Temp. Dew Point Humidity Pressure Visibility Wind Dir Wind Speed Gust Speed Precip Events Conditions
12:53 AM 64.0 °F 57.0 °F 78% 29.94 in 10.0 mi South 9.2 mph - N/A   Clear
1:53 AM 63.0 °F 57.9 °F 84% 29.93 in 10.0 mi South 8.1 mph - N/A   Clear
2:53 AM 63.0 °F 59.0 °F 87% 29.89 in 10.0 mi South 5.8 mph - N/A   Clear
3:53 AM 62.1 °F 60.1 °F 93% 29.86 in 10.0 mi SE 5.8 mph - N/A   Clear
4:29 AM 64.0 °F 61.0 °F 90% 29.87 in 10.0 mi SSE 3.5 mph - N/A   Overcast
4:53 AM 64.0 °F 61.0 °F 90% 29.85 in 10.0 mi SSE 3.5 mph - N/A   Overcast
5:34 AM 62.1 °F 60.1 °F 93% 29.87 in 5.0 mi Calm Calm - 0.00 in Rain Light Rain
5:53 AM 63.0 °F 62.1 °F 97% 29.86 in 6.0 mi Calm Calm - 0.00 in   Overcast
6:03 AM 63.0 °F 61.0 °F 93% 29.87 in 5.0 mi SSE 4.6 mph - N/A   Overcast
6:44 AM 64.0 °F 63.0 °F 96% 29.87 in 5.0 mi SSE 5.8 mph - 0.01 in   Overcast
6:53 AM 64.0 °F 63.0 °F 96% 29.85 in 6.0 mi SSE 5.8 mph - 0.01 in   Overcast
7:53 AM 64.0 °F 63.0 °F 96% 29.85 in 1.5 mi SSE 6.9 mph - 0.03 in Rain Light Rain
8:53 AM 64.9 °F 63.0 °F 93% 29.85 in 1.2 mi ESE 4.6 mph - 0.06 in Rain Light Rain
9:00 AM 64.9 °F 63.0 °F 93% 29.87 in 3.0 mi ESE 4.6 mph - 0.00 in Rain Light Rain
9:19 AM 64.0 °F 63.0 °F 96% 29.87 in 1.8 mi East 3.5 mph - 0.00 in Rain Light Rain
9:33 AM 63.0 °F 62.1 °F 97% 29.87 in 1.2 mi ENE 3.5 mph - 0.01 in Rain , Thunderstorm Light Thunderstorms and Rain
9:48 AM 64.4 °F 62.6 °F 94% 29.88 in 0.8 mi ESE 8.1 mph - 0.17 in Rain Heavy Rain
9:53 AM 64.0 °F 63.0 °F 96% 29.85 in 0.5 mi SE 9.2 mph - 0.34 in Fog , Rain Heavy Rain
10:05 AM 64.9 °F 64.0 °F 97% 29.87 in 1.0 mi ESE 8.1 mph - 0.09 in Rain Light Rain
10:28 AM 63.0 °F 63.0 °F 100% 29.87 in 2.0 mi East 5.8 mph - 0.14 in   Overcast
10:53 AM 63.0 °F 62.1 °F 97% 29.84 in 2.0 mi Calm Calm - 0.17 in Rain Light Rain
10:57 AM 63.0 °F 62.1 °F 97% 29.86 in 1.0 mi Calm Calm - 0.03 in Rain Rain
11:00 AM 63.0 °F 62.1 °F 97% 29.86 in 1.0 mi NNE 3.5 mph - 0.04 in Rain Rain
11:10 AM 63.0 °F 61.0 °F 93% 29.86 in 0.5 mi Variable 4.6 mph - 0.19 in Fog , Rain Rain
11:17 AM 63.0 °F 62.1 °F 97% 29.87 in 0.2 mi WSW 9.2 mph - 0.31 in Fog , Rain Heavy Rain
11:23 AM 64.9 °F 64.0 °F 97% 29.86 in 0.8 mi South 9.2 mph 17.3 mph 0.35 in Rain Rain
11:26 AM 64.9 °F 64.0 °F 97% 29.86 in 1.0 mi SSE 10.4 mph - 0.37 in Rain Rain
11:31 AM 64.9 °F 64.0 °F 97% 29.86 in 1.5 mi South 11.5 mph - 0.39 in Rain , Thunderstorm Rain
11:40 AM 64.9 °F 64.0 °F 97% 29.85 in 2.5 mi SSE 9.2 mph - 0.41 in Rain , Thunderstorm Light Rain
11:49 AM 64.4 °F 64.4 °F 100% 29.84 in 6.0 mi SE 9.2 mph - 0.42 in Rain , Thunderstorm Light Rain
11:53 AM 64.9 °F 64.0 °F 97% 29.82 in 7.0 mi ESE 5.8 mph - 0.43 in Rain Light Rain
12:53 PM 66.0 °F 64.0 °F 93% 29.78 in 6.0 mi SE 15.0 mph - 0.04 in Rain Light Rain
1:53 PM 66.0 °F 64.9 °F 96% 29.72 in 10.0 mi SE 17.3 mph - 0.02 in   Mostly Cloudy
2:44 PM 64.0 °F 62.1 °F 93% 29.75 in 10.0 mi West 10.4 mph - N/A   Overcast
2:53 PM 63.0 °F 61.0 °F 93% 29.73 in 10.0 mi West 12.7 mph - N/A   Overcast
3:53 PM 63.0 °F 62.1 °F 97% 29.73 in 8.0 mi NW 4.6 mph - N/A   Overcast
4:53 PM 63.0 °F 62.1 °F 97% 29.70 in 6.0 mi East 3.5 mph - N/A   Overcast
5:00 PM 63.0 °F 62.1 °F 97% 29.71 in 6.0 mi East 3.5 mph - N/A   Mostly Cloudy
5:30 PM 66.0 °F 63.0 °F 90% 29.71 in 10.0 mi Calm Calm - N/A   Mostly Cloudy
5:53 PM 66.9 °F 64.0 °F 90% 29.68 in 10.0 mi Calm Calm - N/A   Partly Cloudy
6:53 PM 66.0 °F 64.0 °F 93% 29.68 in 10.0 mi SE 5.8 mph - N/A   Overcast
7:53 PM 66.0 °F 64.0 °F 93% 29.70 in 10.0 mi South 5.8 mph - N/A   Overcast
8:53 PM 64.9 °F 61.0 °F 87% 29.71 in 10.0 mi South 5.8 mph - N/A   Scattered Clouds
9:53 PM 63.0 °F 62.1 °F 97% 29.73 in 5.0 mi East 8.1 mph - N/A   Overcast
10:53 PM 64.0 °F 61.0 °F 90% 29.72 in 10.0 mi SSW 9.2 mph - N/A   Clear
11:53 PM 62.1 °F 60.1 °F 93% 29.73 in 10.0 mi SSW 12.7 mph - N/A   Clear